User: anonymous   Login
Location: Unspecified
(0.0000°N, 0.0000°E)
Time: 23:27:00
(UTC+00:00)
Language:

COSMOS 2437 - Orbit

View from above orbital plane
View from above orbital plane
View from above satellite
View from above satellite

Ground track
Ground track

The orbit data is extracted from the following two-line orbital elements,

1 32954U 08025B   24108.57253927  .00000027  00000-0  12181-3 0  9998
2 32954  82.4972 128.9517 0019374 252.4153 224.8261 12.42734145721161
Epoch (UTC): 17 April 2024 13:44:27
Eccentricity: 0.0019374
inclination: 82.4972°
perigee height: 1480 km
apogee height: 1510 km
right ascension of ascending node: 128.9517°
argument of perigee: 252.4153°
revolutions per day: 12.42734145
mean anomaly at epoch: 224.8261°
orbit number at epoch: 72116

The dashed part of the orbit path shows where the satellite is in the earth's shadow,  

DLR